Regional Weather Roundup
Issued by NWS Goodland, KS

Home | Current Version | Previous Version | Text Only | Print | Product List | Glossary On
Versions: 1 2 3 4 5 6 7 8 9 10 11 12 13 14 15 16 17 18 19 20 21 22 23 24 25 26 27 28 29 30 31 32 33 34 35 36 37 38 39 40 41 42 43 44 45 46 47 48 49 50
000
ASUS43 KGLD 230059
RWRGLD

GOODLAND FORECAST AREA HOURLY WEATHER ROUNDUP
NATIONAL WEATHER SERVICE GOODLAND KS
600 PM MST WED FEB 22 2017

...OFFICIAL OBSERVATIONS...

CITY           SKY/WX    TMP DP  RH WIND       PRES   REMARKS
GOODLAND KS    CLEAR     48  21  34 E7        29.73F
HILL CITY KS   CLEAR     50  23  34 NE9       29.72S
IMPERIAL NEB   CLEAR     50  19  29 NE9       29.75S
MCCOOK NEB     CLEAR     52  23  32 NE6       29.74S
AKRON CO       CLEAR     42  17  36 NE9       29.75F
BURLINGTON CO  CLEAR     47  21  35 E10       29.74S
LIMON CO       CLEAR     49  20  31 E9        29.72S
$$

...UNOFFICIAL OBSERVATIONS...

CITY           SKY/WX    TMP DP  RH WIND       PRES   REMARKS
LENORA KS        N/A     60  32  34 CALM        N/A
NORTON KS      CLEAR     50  18  27 N9        29.72
SHARON SPRINGS   N/A     55  26  32 NE8         N/A
TRENTON NEB      N/A     51  32  48 NE6         N/A
KIT CARSON CO    N/A     54  24  31 MISG        N/A
YUMA CO        FAIR      46  19  34 N7        29.75S
$$



USA.gov is the U.S. government's official web portal to all federal, state and local government web resources and services.